Terminal Aerodrome Forecast
Issued by NWS Buffalo, NY

Home | Current Version | Previous Version | Text Only | Print | Product List | Glossary On
Versions: 1 2 3 4 5 6 7 8 9 10 11 12 13 14 15 16 17 18 19 20 21 22 23 24 25 26 27
000
FTUS41 KBUF 251500 AAA
TAFART
TAF AMD
KART 251514Z 2515/2612 23022G36KT P6SM VCSH OVC025
     FM252000 25018G30KT P6SM BKN025
     FM260800 25016G23KT P6SM BKN025=

USA.gov is the U.S. government's official web portal to all federal, state and local government web resources and services.